EB2GLU-13 Weather Reports


time (UTC)temp
C
wind
direction
speed
KPH
gust
KPH
rain 1hr
cm
rain 24hr
cm
rain mn
cm
humidity
%
barometer
mb
20260502170443 16 158 3.2 9.7 0.10 0.23 0.23 88 1013.8
20260502163943 17 170 3.2 4.8 0.05 0.13 0.13 89 1014.1
20260502162713 17 135 0.0 3.2 0.05 0.10 0.10 88 1014.3
20260502161443 17 149 1.6 4.8 0.05 0.10 0.10 87 1014.8
20260502160213 18 158 3.2 4.8 0.05 0.10 0.10 84 1014.5
20260502151213 20 169 6.4 12.9 0.00 0.05 0.05 69 1014.5
20260502130713 17 147 4.8 14.5 0.05 0.05 0.05 78 1015.7
20260502122942 16 163 3.2 16.1 0.05 0.05 0.05 86 1015.4
20260502121712 16 174 6.4 14.5 0.05 0.05 0.05 83 1015.9
20260502120442 18 167 3.2 17.7 0.00 0.00 0.00 79 1016.1
20260502115212 18 185 6.4 16.1 0.00 0.00 0.00 76 1016.5
20260502113942 21 109 6.4 12.9 0.00 0.00 0.00 66 1016.1
20260502112712 21 112 1.6 6.4 0.00 0.00 0.00 65 1016.7
20260502111442 21 173 3.2 16.1 0.00 0.00 0.00 66 1016.5
20260502110212 21 154 8.0 20.9 0.00 0.00 0.00 66 1016.1
20260502104942 21 157 4.8 12.9 0.00 0.00 0.00 65 1015.9
20260502103712 20 159 4.8 20.9 0.00 0.00 0.00 66 1016.0
20260502102442 20 158 4.8 24.1 0.00 0.00 0.00 65 1016.2
20260502101212 20 140 9.7 29.0 0.00 0.00 0.00 67 1016.5
20260502090942 20 174 6.4 30.6 0.00 0.00 0.00 68 1016.5
20260502070442 19 161 4.8 16.1 0.00 0.00 0.00 68 1016.3
20260502065212 19 152 4.8 29.0 0.00 0.00 0.00 68 1016.1
20260502063942 19 138 8.0 32.2 0.00 0.00 0.00 68 1016.2
20260502062712 18 167 8.0 24.1 0.00 0.00 0.00 68 1016.1
20260502061442 18 109 4.8 24.1 0.00 0.00 0.00 69 1015.8
20260502060212 18 166 8.0 30.6 0.00 0.00 0.00 69 1015.8
20260502054942 18 161 4.8 17.7 0.00 0.00 0.00 69 1016.1
20260502053712 18 143 4.8 14.5 0.00 0.00 0.00 69 1015.9
20260502052442 18 149 4.8 14.5 0.00 0.00 0.00 69 1016.4
20260502051212 18 165 8.0 20.9 0.00 0.00 0.00 69 1016.1
20260502045942 18 151 8.0 14.5 0.00 0.00 0.00 69 1017.0
20260502044712 18 158 1.6 12.9 0.00 0.00 0.00 69 1017.0
20260502043442 18 164 4.8 20.9 0.00 0.00 0.00 68 1017.2
20260502042212 18 150 4.8 19.3 0.00 0.00 0.00 68 1016.9
20260502040941 18 169 6.4 20.9 0.00 0.00 0.00 67 1017.1
20260502035712 18 184 9.7 19.3 0.00 0.00 0.00 67 1017.3
20260502034441 18 151 9.7 24.1 0.00 0.00 0.00 67 1017.2
20260502033211 19 140 14.5 27.4 0.00 0.00 0.00 66 1017.0
20260502031941 19 162 3.2 24.1 0.00 0.00 0.00 66 1017.1
20260502030711 19 141 4.8 17.7 0.00 0.00 0.00 65 1017.1
20260502025441 19 124 4.8 20.9 0.00 0.00 0.00 65 1017.2
20260502024211 19 157 8.0 16.1 0.00 0.00 0.00 64 1017.2
20260502022941 19 81 4.8 16.1 0.00 0.00 0.00 64 1017.3
20260502021711 19 92 0.0 19.3 0.00 0.00 0.00 64 1017.3
20260502020441 19 126 9.7 19.3 0.00 0.00 0.00 64 1017.3
20260502015211 19 164 4.8 12.9 0.00 0.00 0.00 64 1017.1
20260502013941 19 67 0.0 17.7 0.00 0.00 0.00 64 1016.9
20260502012711 19 106 6.4 19.3 0.00 0.00 0.00 65 1017.1
20260502011441 19 156 6.4 16.1 0.00 0.00 0.00 65 1017.1
20260502010211 18 161 6.4 12.9 0.00 0.00 0.00 66 1017.1
20260502004941 19 153 4.8 20.9 0.00 0.00 0.00 66 1017.5
20260502003711 19 162 4.8 14.5 0.00 0.00 0.00 66 1017.6
20260502002441 19 153 4.8 14.5 0.00 0.00 0.00 65 1017.8
20260502001211 19 158 4.8 9.7 0.00 0.00 0.00 66 1017.5
20260501235941 20 155 4.8 12.9 0.00 0.00 0.00 64 1017.9
20260501234711 20 144 4.8 16.1 0.00 0.00 0.00 63 1018.1
20260501233441 20 155 9.7 17.7 0.00 0.00 0.00 63 1017.9
20260501232211 20 155 6.4 29.0 0.00 0.00 0.00 63 1017.8
20260501230941 20 163 1.6 35.4 0.00 0.00 0.00 62 1017.7
20260501225711 20 145 8.0 24.1 0.00 0.00 0.00 61 1017.7
20260501224441 21 172 6.4 17.7 0.00 0.00 0.00 60 1017.8
20260501223211 20 143 11.3 19.3 0.00 0.00 0.00 60 1017.8
20260501221941 21 90 12.9 38.6 0.00 0.00 0.00 60 1017.7
20260501215441 21 149 4.8 19.3 0.00 0.00 0.00 62 1018.0
20260501214211 21 160 3.2 16.1 0.00 0.00 0.00 62 1018.1
20260501212941 21 145 4.8 29.0 0.00 0.00 0.00 63 1018.1
20260501211711 21 150 8.0 16.1 0.00 0.00 0.00 64 1017.8